[Iaude] MPEC X90: 2023 XV1 [a=2.55,e=0.71,i=17.9,H=21.2,PHA]

mpec at marsden.cfa.harvard.edu mpec at marsden.cfa.harvard.edu
Tue Dec 5 22:37:43 EST 2023


M.P.E.C. 2023-X90                              Issued 2023 December 6, 03:36 UT

     The Minor Planet Electronic Circulars contain information on unusual
         minor planets, routine data on comets and natural satellites,
         and occasional editorial announcements.  They are published
    on behalf of Division F of the International Astronomical Union by the
          Minor Planet Center, Smithsonian Astrophysical Observatory,
                          Cambridge, MA 02138, U.S.A.
			  
             Prepared using the Tamkin Foundation Computer Network

                              MPC at CFA.HARVARD.EDU
            URL https://www.minorplanetcenter.net/    ISSN 1523-6714

                                    2023 XV1                                    


Observations:
     K23X01V*1C2023 12 04.17226900 24 15.469+20 31 58.48         20.89GVEX090G96
     K23X01V 1C2023 12 04.17794300 24 14.767+20 31 38.35         20.98GVEX090G96
     K23X01V 1C2023 12 04.18363300 24 14.083+20 31 18.73         21.44GVEX090G96
     K23X01V 1C2023 12 04.18932100 24 13.417+20 30 59.33         20.74GVEX090G96
     K23X01V KC2023 12 04.26602600 24 04.290+20 26 33.10               VEX090I52
     K23X01V KC2023 12 04.26990100 24 03.830+20 26 19.80         20.89GVEX090I52
     K23X01V KC2023 12 04.27376500 24 03.410+20 26 06.20         20.89GVEX090I52
     K23X01V KC2023 12 04.27763500 24 02.950+20 25 53.00         21.33GVEX090I52
     K23X01V KC2023 12 05.08716000 22 35.317+19 39 02.92         20.79GVEX090I52
     K23X01V KC2023 12 05.09028600 22 34.943+19 38 52.19         20.85GVEX090I52
     K23X01V KC2023 12 05.09340400 22 34.576+19 38 41.24         20.63GVEX090I52
     K23X01V KC2023 12 05.09651000 22 34.216+19 38 30.41         20.54GVEX090I52
     K23X01V  C2023 12 05.22912300 22 18.675+19 30 42.83         20.3 GVEX090H01
     K23X01V  C2023 12 05.23591700 22 17.899+19 30 18.68         20.6 GVEX090H01
     K23X01V  C2023 12 05.24815900 22 16.498+19 29 35.32         20.4 GVEX090H01
     K23X01V  C2023 12 05.25179700 22 16.087+19 29 22.39         20.6 GVEX090H01
     K23X01V KC2023 12 05.76156 00 21 22.63 +18 59 19.3                VEX090204
     K23X01V KC2023 12 05.78317 00 21 20.20 +18 58 02.8          20.8 GVEX090204
     K23X01V KC2023 12 06.06345800 20 50.85 +18 41 28.5          20.6 GXEX090858
     K23X01V KC2023 12 06.07074600 20 49.97 +18 41 02.1          20.7 GXEX090858
     K23X01V KC2023 12 06.12464 00 20 43.99 +18 37 51.4          21.6 RVEX090691
     K23X01V KC2023 12 06.12968 00 20 43.43 +18 37 33.3          21.5 RVEX090691
     K23X01V KC2023 12 06.13473 00 20 42.86 +18 37 14.8          22.1 RVEX090691

Observer details:
204 Schiaparelli Observatory.  Observers L. Buzzi, G. Galli.  0.84-m f/3.5
    reflector + CCD.
691 Steward Observatory, Kitt Peak-Spacewatch.  Observer R. A. Mastaler.
    0.9-m f/3 reflector + CCD.
858 Tebbutt Observatory, Edgewood.  Observer F. B. Zoltowski.  0.51-m f/8.1
    Schmidt-Cassegrain + CCD.
G96 Mt. Lemmon Survey.  Observer J. K. Hogan.  Measurers E. C. Beshore, D.
    Fay, J. B. Fazekas, D. C. Fuls, A. R. Gibbs, A. D. Grauer, H. Groeller, J.
    K. Hogan, R. A. Kowalski, S. M. Larson, G. J. Leonard, D. Rankin, R. L.
    Seaman, F. C. Shelly, K. W. Wierzchos.  1.5-m reflector + 10K CCD.
H01 Magdalena Ridge Observatory, Socorro.  Observers W. H. Ryan, E. V. Ryan.
    Measurer W. H. Ryan.  2.4-m f/8.9 Ritchey-Chretien + CCD.
I52 Steward Observatory, Mt. Lemmon Station.  Observer G. J. Leonard.
    Measurers E. C. Beshore, D. Fay, J. B. Fazekas, D. C. Fuls, A. R. Gibbs,
    A. D. Grauer, H. Groeller, J. K. Hogan, R. A. Kowalski, S. M. Larson, G.
    J. Leonard, D. Rankin, R. L. Seaman, F. C. Shelly, K. W. Wierzchos.  1.0-m
    prime focus + CCD.

Orbital elements:
2023 XV1                                            PHA, Earth MOID = 0.0210 AU
Epoch 2023 Sept. 13.0 TT = JDT 2460200.5                MPC                     
M 325.06057              (2000.0)            P               Q                  
n   0.24139185     Peri.  249.89697     -0.75010455     -0.59286730             
a   2.5545887      Node   252.60668     +0.66073439     -0.69049758             
e   0.7069759      Incl.   17.88117     -0.02780705     -0.41439286             
P   4.08           H   21.22          G   0.15           U   9                  
Residuals in seconds of arc
231204 G96  0.2+  0.3+    231205 I52  0.1+  0.2-    231205 204  0.3-  0.1-
231204 G96  0.0   0.2-    231205 I52  0.0   0.0     231205 204  0.2+  0.1+
231204 G96  0.0   0.2-    231205 I52  0.0   0.0     231206 858  0.2+  0.2+
231204 G96  0.2+  0.1+    231205 I52  0.0   0.0     231206 858  0.5-  0.3-
231204 I52  0.3-  0.1-    231205 H01  0.1+  0.1+    231206 691  0.0   0.2+
231204 I52  0.4-  0.1+    231205 H01  0.1+  0.0     231206 691  0.3+  0.2+
231204 I52  0.1+  0.1-    231205 H01  0.0   0.0     231206 691  0.3+  0.2-
231204 I52  0.0   0.2+    231205 H01  0.1+  0.0

Ephemeris:
2023 XV1                 a,e,i = 2.55, 0.71, 18                  q = 0.7486
Date    TT    R. A. (2000) Decl.     Delta      r    Elong.  Phase     V
2023 11 06    01 31 47.0 +38 21 50   0.5723  1.5225   152.6    17.4    21.8
...
2023 11 21    00 53 15.3 +31 13 31   0.4486  1.3633   140.2    27.6    21.4
...
2023 11 29    00 34 38.2 +25 11 47   0.4003  1.2774   129.1    36.8    21.3
...
2023 12 05    00 22 44.6 +19 44 16   0.3710  1.2129   119.7    44.9    21.2
2023 12 06    00 20 57.3 +18 45 25   0.3666  1.2021   118.0    46.3    21.2
2023 12 07    00 19 13.3 +17 45 23   0.3623  1.1914   116.4    47.8    21.2
...
2023 12 13    00 09 56.7 +11 22 07   0.3394  1.1276   106.2    57.0    21.2
...
2023 12 21    23 59 59.0 +01 51 39   0.3142  1.0443    92.2    70.3    21.3
...
2024 01 05    23 40 41.8 -19 22 27   0.2822  0.9010    65.0    98.5    21.8

A. U. Tomatic                (C) Copyright 2023 MPC           M.P.E.C. 2023-X90





More information about the Iaude mailing list